Flag for U.S.A. Weather past 2 weeks in Hopkinsville, Kentucky, U.S.A.

Now
74 °F

Clear.


Feels Like: 73 °F
Forecast: 66 / 85 °F
Wind: 5 mph from Southwest

Location: Fort Campbell U. S. Army Airfield

Current Time: Jun 29, 2015 at 11:01:11 PM

Latest Report: Jun 29, 2015 at 9:58 PM


Visibility: 10 mi

Pressure: 29.89 "Hg

Humidity: 88%

Dew point: 70 °F

Location of HopkinsvilleLocation

Historic Weather in Hopkinsville — Graph

°F

Hopkinsville temperature yesterday

Maximum temperature yesterday: 81 °F (at 3:58 PM)
Minimum temperature yesterday: 59 °F (at 4:58 AM)
Average temperature yesterday: 71 °F

Past Weeks' High & Low Weather Summary

 TemperatureHumidityPressure
High91 °F (Jun 25, 2:58 PM)100% (Jun 26, 9:59 PM)30.15 "Hg (Jun 26, 9:59 PM)
Low59 °F (Jun 28, 4:58 AM)47% (Jun 28, 12:58 PM)29.75 "Hg (Jun 20, 1:58 AM)
Average79 °F77%29.98 "Hg
* Reported Jun 14 8:58 PM — Jun 29 8:58 PM, Hopkinsville, Weather by CustomWeather, © 2015

Note: Actual official high and low records may vary slightly from our data, if they occured in-between our weather recording intervals... More about our weather records

Advertising

Hopkinsville weather history for previous 24 hours

 ConditionsComfort  
Time TempWeatherWind HumidityBarometerVisibility
8:58 PM
Mon, Jun 29
75 °FClear.3 mph86%29.86 "Hg10 mi
7:58 PM77 °FSunny.5 mph80%29.86 "Hg10 mi
6:58 PM78 °FPassing clouds.8 mph74%29.84 "Hg10 mi
5:58 PM75 °FPassing clouds.3 mph79%29.83 "Hg10 mi
5:02 PM75 °FThundershowers. Passing clouds.13 mph89%29.85 "Hg9 mi
4:00 PM82 °FPassing clouds.15 mph66%29.84 "Hg9 mi
2:58 PM86 °FPassing clouds.17 mph61%29.84 "Hg7 mi
1:58 PM85 °FPassing clouds.17 mph60%29.85 "Hg8 mi
12:58 PM83 °FBroken clouds.16 mph64%29.86 "Hg10 mi
11:58 AM83 °FPartly sunny.16 mph64%29.86 "Hg9 mi
10:58 AM82 °FScattered clouds.16 mph64%29.86 "Hg7 mi
9:58 AM80 °FSunny.15 mph68%29.87 "Hg7 mi
8:58 AM77 °FSunny.20 mph71%29.87 "Hg9 mi
7:58 AM74 °FSunny.15 mph74%29.86 "Hg10 mi
6:58 AM71 °FSunny.12 mph80%29.86 "Hg10 mi
5:58 AM69 °FPassing clouds.12 mph81%29.86 "Hg10 mi
4:58 AM69 °FPassing clouds.13 mph86%29.87 "Hg10 mi
3:58 AM69 °FPassing clouds.8 mph86%29.86 "Hg10 mi
2:58 AM68 °FPartly cloudy.6 mph86%29.87 "Hg10 mi
2:04 AM70 °FLight rain. Passing clouds.9 mph78%29.89 "Hg10 mi
1:58 AM71 °FPassing clouds.9 mph72%29.88 "Hg10 mi
12:58 AM70 °FPassing clouds.7 mph73%29.90 "Hg10 mi
11:58 PM
Sun, Jun 28
72 °FPartly cloudy.8 mph67%29.89 "Hg10 mi
Weather by CustomWeather, © 2015

See weather overviewHow to use our weather pages